Regional Weather Roundup
Issued by NWS

Home | Current Version | Previous Version | Text Only | Print | Product List | Glossary On
Versions: 1 2 3 4 5 6 7 8 9 10 11 12 13 14 15 16 17 18 19 20 21 22 23 24 25 26 27 28 29 30 31 32 33 34 35 36 37 38 39 40 41 42 43 44 45 46 47 48 49 50
000
ASUS46 KSEW 252110
RWRWA

WASHINGTON REGIONAL WEATHER ROUNDUP
NATIONAL WEATHER SERVICE SEATTLE WA
200 PM PDT FRI MAY 25 2018

NOTE:"FAIR" INDICATES FEW OR NO CLOUDS BELOW 12,000 FEET WITH NO
SIGNIFICANT WEATHER AND/OR OBSTRUCTIONS TO VISIBILITY.

WAZ507-509-555>559-252200-
SEATTLE, TACOMA, EVERETT, AND VICINITY

CITY           SKY/WX    TMP DP  RH WIND       PRES   REMARKS
EVERETT        CLOUDY    58  47  66 NW8       30.05S
BOEING FIELD   PTSUNNY   65  48  54 VRB5      30.03S
RENTON         PTSUNNY   65  51  60 NW6       30.02F
SEATAC AIRPORT PTSUNNY   65  49  56 W8        30.03F
JBLM-MCCHORD   PTSUNNY   65  55  70 N3        30.03S
PUYALLUP       FAIR      64  54  68 CALM      30.03F
BREMERTON      CLOUDY    60  50  69 CALM      30.04S
JBLM-FT LEWIS  NOT AVBL
TACOMA NARROWS PTSUNNY   63  50  62 W7        30.03F
$$

WAZ001-503-506-510-514-515-252200-
NORTH INTERIOR

CITY           SKY/WX    TMP DP  RH WIND       PRES   REMARKS
BELLINGHAM     PTSUNNY   63  39  41 S13G23    30.01S
FRIDAY HARBOR  MOSUNNY   65  43  44 SW8       30.01S
EASTSOUND      MOSUNNY   64  45  48 S10       30.00S
PORT ANGELES   MOSUNNY   57  44  62 NW16G23   30.06R
EDIZ HOOK      FAIR      56  46  66 W17G24    30.05S
PORT TOWNSEND  FAIR      63  46  55 W9        30.04F
NAS WHIDBEY    PTSUNNY   61  45  55 SW10G20   30.08S
ARLINGTON      CLOUDY    59  47  64 NW6       30.05
BURLINGTON     CLOUDY    61  41  48 SW9       30.04F
$$

WAZ020-022-039-040-504-511-512-252200-
SOUTHWEST INTERIOR

CITY           SKY/WX    TMP DP  RH WIND       PRES   REMARKS
SHELTON        PTSUNNY   67  50  54 VRB3      29.99F
OLYMPIA        MOSUNNY   67  50  54 CALM      30.02F
CHEHALIS       FAIR      72  46  40 VRB7G14   30.01F
KELSO          MOSUNNY   68  49  50 NW9G16    30.02F
VANCOUVER      CLOUDY    68  50  52 W8        30.00F
SCAPPOOSE, OR  PTSUNNY   69  49  48 N9G16     29.99S
PORTLAND, OR   CLOUDY    69  48  47 W7        30.01S
$$

WAZ021-516-517-252200-
WASHINGTON COAST

CITY           SKY/WX    TMP DP  RH WIND       PRES   REMARKS
FORKS          PTSUNNY   55  41  59 NW13      30.10R
HOQUIAM        MOSUNNY   61  46  57 W20G28    30.07R
ASTORIA, OR    SUNNY     61  46  57 NW16G23   30.09R
$$

WAZ019-023-024-040-567>569-252200-
CASCADE MOUNTAINS AND COLUMBIA GORGE

CITY           SKY/WX    TMP DP  RH WIND       PRES   REMARKS
STAMPEDE PASS  PTSUNNY   55  45  68 VRB7      30.00F
TROUTDALE, OR  CLOUDY    66  52  60 E8        30.02S
HOOD RIVER, OR MOCLDY    64  50  59 W13G22    29.90R
THE DALLES, OR CLOUDY    72  52  49 NW15G24   29.86S
$$

WAZ026-027-041>044-520-521-252200-
EAST SLOPES

CITY           SKY/WX    TMP DP  RH WIND       PRES   REMARKS
OMAK           PTSUNNY   78  51  38 SW10      29.81F
WENATCHEE      PTSUNNY   79  45  29 NW7       29.81F
ELLENSBURG     MOSUNNY   77  49  37 NW22G31   29.85F
YAKIMA         PTSUNNY   80  43  26 CALM      29.82F
SUNNYSIDE ARPT CLOUDY    75  50  41 SW3       29.82F
YAKIMA TC      FAIR      79  38  22 CALM      29.81F
$$

WAZ028-034-035-252200-
COLUMBIA BASIN

CITY           SKY/WX    TMP DP  RH WIND       PRES   REMARKS
EPHRATA        MOSUNNY   82  44  26 S6        29.81F
MOSES LAKE     MOSUNNY   81  46  29 SW7       29.82F
PASCO          CLOUDY    79  54  41 VRB3      29.81F
RICHLAND ARPT  CLOUDY    78  53  41 E7        29.81F
HERMISTON, OR  PTSUNNY   80  53  39 W8        29.82F
$$

WAZ036>038-252200-
NORTHEAST WASHINGTON

CITY           SKY/WX    TMP DP  RH WIND       PRES   REMARKS
SPOKANE GEIGER PTSUNNY   76  49  38 S8        29.87F
SPOKANE FELTS  PTSUNNY   79  50  36 VRB6      29.85F
FAIRCHILD AFB  PTSUNNY   75  51  41 SW8       29.88F
COEURDALENE,ID CLOUDY    81  52  36 W9        29.86F
DEER PARK      PTSUNNY   78  51  38 SE5       29.86F
$$

WAZ029>033-252200-
SOUTHEAST WASHINGTON

CITY           SKY/WX    TMP DP  RH WIND       PRES   REMARKS
PULLMAN        PTSUNNY   75  57  53 NW8       29.88F
LEWISTON, ID   PTSUNNY   80  59  48 VRB5      29.81F
WALLA WALLA    MOSUNNY   78  52  40 W6        29.83F
PENDLETON, OR  MOSUNNY   77  49  37 NW12      29.84F
$$



USA.gov is the U.S. government's official web portal to all federal, state and local government web resources and services.